Stündliche Wetter Abrykosivka

Heute, 17 Juni, Donnerstag

Zeit Temperatur Niederschläge Wind Luftdruck Luftfeuchtigkeit
00:00 +19°C° 0.3 mm 5 m/S 750 mmHg 76%
01:00 +19°C° 0.3 mm 5 m/S 750 mmHg 82%
02:00 +17°C° 0.3 mm 5 m/S 749 mmHg 87%
03:00 +18°C° 3.2 mm 4 m/S 750 mmHg 90%
04:00 +18°C° 3.2 mm 3 m/S 750 mmHg 93%
05:00 +18°C° 3.2 mm 2 m/S 750 mmHg 96%
06:00 +18°C° 4.9 mm 4 m/S 750 mmHg 94%
07:00 +19°C° 4.9 mm 6 m/S 750 mmHg 93%
08:00 +20°C° 4.9 mm 7 m/S 750 mmHg 92%
09:00 +21°C° 0.9 mm 8 m/S 750 mmHg 88%
10:00 +22°C° 0.9 mm 9 m/S 750 mmHg 84%
11:00 +23°C° 0.9 mm 10 m/S 750 mmHg 81%
12:00 +23°C° 0.5 mm 9 m/S 751 mmHg 81%
13:00 +23°C° 0.5 mm 9 m/S 751 mmHg 81%
14:00 +23°C° 0.5 mm 8 m/S 751 mmHg 81%
15:00 +23°C° 0.5 mm 8 m/S 751 mmHg 82%
16:00 +22°C° 0.5 mm 7 m/S 751 mmHg 82%
17:00 +22°C° 0.5 mm 6 m/S 751 mmHg 83%
18:00 +21°C° 0.2 mm 6 m/S 751 mmHg 86%
19:00 +21°C° 0.2 mm 5 m/S 752 mmHg 88%
20:00 +20°C° 0.2 mm 4 m/S 752 mmHg 91%
21:00 +20°C° 0.1 mm 4 m/S 752 mmHg 91%
22:00 +19°C° 0.1 mm 4 m/S 752 mmHg 92%
23:00 +19°C° 0.1 mm 4 m/S 752 mmHg 93%

Morgen, 18 Juni, Freitag

Zeit Temperatur Niederschläge Wind Luftdruck Luftfeuchtigkeit
00:00 +19°C° 0.2 mm 4 m/S 752 mmHg 94%
01:00 +19°C° 0.2 mm 5 m/S 752 mmHg 95%
02:00 +17°C° 0.2 mm 5 m/S 752 mmHg 96%
03:00 +17°C° 0 mm 5 m/S 752 mmHg 95%
04:00 +17°C° 0 mm 5 m/S 752 mmHg 94%
05:00 +17°C° 0 mm 6 m/S 752 mmHg 94%
06:00 +20°C° 0 mm 6 m/S 752 mmHg 88%
07:00 +21°C° 0 mm 7 m/S 753 mmHg 83%
08:00 +22°C° 0 mm 7 m/S 753 mmHg 77%
09:00 +22°C° 0.2 mm 7 m/S 753 mmHg 76%
10:00 +23°C° 0.2 mm 7 m/S 754 mmHg 74%
11:00 +23°C° 0.2 mm 7 m/S 754 mmHg 72%
12:00 +24°C° 0.1 mm 7 m/S 754 mmHg 69%
13:00 +24°C° 0.1 mm 6 m/S 754 mmHg 66%
14:00 +24°C° 0.1 mm 6 m/S 755 mmHg 63%
15:00 +25°C° 0 mm 5 m/S 755 mmHg 63%
16:00 +25°C° 0 mm 5 m/S 755 mmHg 63%
17:00 +25°C° 0 mm 5 m/S 755 mmHg 62%
18:00 +23°C° 0 mm 4 m/S 755 mmHg 68%
19:00 +21°C° 0 mm 4 m/S 755 mmHg 74%
20:00 +19°C° 0 mm 3 m/S 756 mmHg 80%
21:00 +19°C° 0 mm 3 m/S 756 mmHg 84%
22:00 +18°C° 0 mm 3 m/S 756 mmHg 88%
23:00 +18°C° 0 mm 4 m/S 756 mmHg 92%

übermorgen, 19 Juni, Samstag

Zeit Temperatur Niederschläge Wind Luftdruck Luftfeuchtigkeit
00:00 +17°C° 0 mm 4 m/S 756 mmHg 92%
01:00 +17°C° 0 mm 3 m/S 756 mmHg 92%
02:00 +16°C° 0 mm 3 m/S 756 mmHg 93%
03:00 +17°C° 0 mm 4 m/S 756 mmHg 92%
04:00 +17°C° 0 mm 4 m/S 756 mmHg 91%
05:00 +17°C° 0 mm 4 m/S 756 mmHg 90%
06:00 +19°C° 0 mm 4 m/S 755 mmHg 83%
07:00 +20°C° 0 mm 5 m/S 755 mmHg 76%
08:00 +22°C° 0 mm 5 m/S 755 mmHg 68%
09:00 +23°C° 0 mm 5 m/S 755 mmHg 66%
10:00 +26°C° 0 mm 6 m/S 755 mmHg 63%
11:00 +27°C° 0 mm 6 m/S 755 mmHg 61%
12:00 +28°C° 0 mm 6 m/S 754 mmHg 59%
13:00 +28°C° 0 mm 6 m/S 754 mmHg 57%
14:00 +29°C° 0 mm 6 m/S 754 mmHg 55%
15:00 +29°C° 0.1 mm 6 m/S 754 mmHg 58%
16:00 +28°C° 0.1 mm 7 m/S 754 mmHg 60%
17:00 +28°C° 0.1 mm 7 m/S 754 mmHg 63%
18:00 +26°C° 0 mm 7 m/S 754 mmHg 65%
19:00 +24°C° 0 mm 6 m/S 754 mmHg 68%
20:00 +23°C° 0 mm 6 m/S 754 mmHg 70%
21:00 +22°C° 0 mm 6 m/S 754 mmHg 69%
22:00 +22°C° 0 mm 7 m/S 753 mmHg 69%
23:00 +21°C° 0 mm 7 m/S 753 mmHg 68%

20 Juni, Sonntag

Zeit Temperatur Niederschläge Wind Luftdruck Luftfeuchtigkeit
00:00 +21°C° 0.1 mm 7 m/S 753 mmHg 64%
01:00 +21°C° 0.1 mm 7 m/S 753 mmHg 61%
02:00 +20°C° 0.1 mm 7 m/S 752 mmHg 57%
03:00 +20°C° 0 mm 6 m/S 753 mmHg 60%
04:00 +19°C° 0 mm 6 m/S 753 mmHg 62%
05:00 +19°C° 0 mm 6 m/S 753 mmHg 65%
06:00 +20°C° 0.1 mm 6 m/S 753 mmHg 63%
07:00 +21°C° 0.1 mm 7 m/S 753 mmHg 60%
08:00 +22°C° 0.1 mm 7 m/S 753 mmHg 58%
09:00 +24°C° 0 mm 7 m/S 752 mmHg 55%
10:00 +26°C° 0 mm 8 m/S 752 mmHg 52%
11:00 +27°C° 0 mm 8 m/S 752 mmHg 49%
12:00 +28°C° 0 mm 8 m/S 752 mmHg 48%
13:00 +29°C° 0 mm 7 m/S 752 mmHg 47%
14:00 +29°C° 0 mm 7 m/S 751 mmHg 46%
15:00 +29°C° 0 mm 7 m/S 751 mmHg 50%
16:00 +29°C° 0 mm 6 m/S 751 mmHg 54%
17:00 +28°C° 0 mm 6 m/S 751 mmHg 57%
18:00 +27°C° 0 mm 5 m/S 751 mmHg 64%
19:00 +25°C° 0 mm 4 m/S 751 mmHg 70%
20:00 +23°C° 0 mm 4 m/S 751 mmHg 76%
21:00 +22°C° 0 mm 4 m/S 751 mmHg 77%
22:00 +22°C° 0 mm 4 m/S 750 mmHg 79%
23:00 +21°C° 0 mm 4 m/S 750 mmHg 81%

21 Juni, Montag

Zeit Temperatur Niederschläge Wind Luftdruck Luftfeuchtigkeit
00:00 +21°C° 0 mm 3 m/S 750 mmHg 80%
01:00 +20°C° 0 mm 3 m/S 750 mmHg 80%
02:00 +20°C° 0 mm 3 m/S 750 mmHg 79%
03:00 +20°C° 0 mm 4 m/S 750 mmHg 77%
04:00 +20°C° 0 mm 4 m/S 750 mmHg 76%
05:00 +21°C° 0 mm 4 m/S 750 mmHg 74%
06:00 +22°C° 0 mm 5 m/S 750 mmHg 68%
07:00 +23°C° 0 mm 5 m/S 750 mmHg 62%
08:00 +26°C° 0 mm 6 m/S 750 mmHg 56%
09:00 +27°C° 0.1 mm 6 m/S 751 mmHg 53%
10:00 +28°C° 0.1 mm 6 m/S 751 mmHg 51%
11:00 +29°C° 0.1 mm 6 m/S 751 mmHg 49%
12:00 +30°C° 0 mm 6 m/S 751 mmHg 48%
13:00 +30°C° 0 mm 6 m/S 750 mmHg 46%
14:00 +30°C° 0 mm 7 m/S 750 mmHg 45%
15:00 +30°C° 0 mm 6 m/S 750 mmHg 48%
16:00 +29°C° 0 mm 6 m/S 750 mmHg 51%
17:00 +29°C° 0 mm 5 m/S 750 mmHg 54%
18:00 +28°C° 0 mm 5 m/S 750 mmHg 60%
19:00 +26°C° 0 mm 4 m/S 750 mmHg 67%
20:00 +24°C° 0 mm 3 m/S 750 mmHg 73%
21:00 +24°C° 0 mm 3 m/S 750 mmHg 75%
22:00 +22°C° 0 mm 3 m/S 750 mmHg 76%
23:00 +21°C° 0 mm 2 m/S 750 mmHg 78%

22 Juni, Dienstag

Zeit Temperatur Niederschläge Wind Luftdruck Luftfeuchtigkeit
00:00 +21°C° 0 mm 3 m/S 750 mmHg 79%
01:00 +21°C° 0 mm 3 m/S 750 mmHg 81%
02:00 +20°C° 0 mm 3 m/S 750 mmHg 83%
03:00 +20°C° 0 mm 3 m/S 750 mmHg 83%
04:00 +21°C° 0 mm 2 m/S 750 mmHg 84%
05:00 +21°C° 0 mm 2 m/S 750 mmHg 84%
06:00 +24°C° 0 mm 3 m/S 750 mmHg 79%
07:00 +25°C° 0 mm 3 m/S 751 mmHg 73%
08:00 +27°C° 0 mm 3 m/S 751 mmHg 67%
09:00 +28°C° 0 mm 3 m/S 751 mmHg 63%
10:00 +30°C° 0 mm 4 m/S 751 mmHg 59%
11:00 +32°C° 0 mm 4 m/S 751 mmHg 55%
12:00 +32°C° 0 mm 4 m/S 751 mmHg 53%
13:00 +33°C° 0 mm 4 m/S 751 mmHg 50%
14:00 +33°C° 0 mm 5 m/S 751 mmHg 47%
15:00 +32°C° 0 mm 5 m/S 751 mmHg 48%
16:00 +32°C° 0 mm 5 m/S 751 mmHg 49%
17:00 +30°C° 0 mm 4 m/S 751 mmHg 50%
18:00 +28°C° 0.2 mm 4 m/S 751 mmHg 56%
19:00 +26°C° 0.2 mm 3 m/S 751 mmHg 61%
20:00 +25°C° 0.2 mm 2 m/S 751 mmHg 67%
21:00 +24°C° 0 mm 2 m/S 751 mmHg 68%
22:00 +24°C° 0 mm 2 m/S 751 mmHg 69%
23:00 +23°C° 0 mm 2 m/S 751 mmHg 71%
Mehr zeigen

Wir brauchen deine Erlaubnis

Meteoprog und unser Service Anbieter werden persönliche Daten aufbewahren, so wie Cookies, Geräte Bezeichnung oder ähnliche Technologien von deinem Gerät und Prozess, so wie Persönliche Daten Inhalte und Werbungen, genauso wie social Media und den Verkehr zu analysieren.

  • Aufbewahrung und/oder Zugang zu deiner Geräte Informationen.

    Cookies, Geräte Bezeichnung oder andere Informationen, können aufbewahrt oder Zugang zu deinem Gerät erhalten, für den Grund, der oben angegeben wird.

  • Personalisierte Werbung und Inhalte, Messungen, Einblick in das Publikum und Produkt Entwicklung.

    Werbungen und Inhalte können personalisiert werden, basierend auf ein Profil. Mehr Daten können besser personalisierte Werbungen und Inhalte hinzufügen. Werbung und Inhalte können gezeigt und gemessen werden. Einblicke über das Publikum, welche die Werbung gesehen haben und den Inhalt, können abgeleitet werden. So wie Daten können genutzt werden, um es zu verbessern oder die Benutzer Erfahrung zu verbessern das System und die Software.

Wenn du “Ich stimme zu” klickst, erlaubst du uns, die Cookies zu benutzen die Geräte Bezeichnung, den Web oder ähnliche Technologien zu benutzen. Deine Settings, können in deinem Gerät bei deinem Browser geändert werden.

Für den bestimmten Zweck, berechtigten Interessen beruhen darauf, mehr als auf den Inhalt. Du kannst mehr darüber in unseren Privaten und Cookie Politik lesen.